N515CC KSNA-PAJN

Flight info

Callsign N515CC
Flight time N/A
Altitude 34000
Route HHERO3 OROSZ COREZ RGOOD COLOM LMT HISKU HQM ORCAA YZT Q902 DOOZI
Aircraft CL60/M-SADE3FGHIJ3J4J7P2RWXY/HB1D1

Departure

Time N/A
Airport John Wayne Orange County International Airport (KSNA)

Arrival

Time 2026-04-26 20:34
Airport Juneau International Airport (PAJN)
Time Latitude Longitude Altitude Speed Heading
2026-04-26 19:46 54.34359 -130.79939 33973 ft 479 kts 325°
2026-04-26 19:46 54.37228 -130.82889 33970 ft 479 kts 325°
2026-04-26 19:47 54.41958 -130.87764 33970 ft 479 kts 325°
2026-04-26 19:47 54.48585 -130.94617 33969 ft 479 kts 325°
2026-04-26 19:48 54.54291 -131.00537 33974 ft 480 kts 325°
2026-04-26 19:48 54.59974 -131.06456 33975 ft 480 kts 325°
2026-04-26 19:49 54.65387 -131.12930 33976 ft 476 kts 319°
2026-04-26 19:49 54.70622 -131.19835 33978 ft 477 kts 323°
2026-04-26 19:50 54.76256 -131.25867 33980 ft 477 kts 325°
2026-04-26 19:50 54.81902 -131.31869 33976 ft 475 kts 325°
2026-04-26 19:51 54.87513 -131.37859 33974 ft 475 kts 326°
2026-04-26 19:51 54.93092 -131.43835 33968 ft 474 kts 326°
2026-04-26 19:52 54.98682 -131.49846 33982 ft 473 kts 326°
2026-04-26 19:52 55.04249 -131.55853 33991 ft 472 kts 326°
2026-04-26 19:53 55.09840 -131.61717 33992 ft 472 kts 327°
2026-04-26 19:53 55.15507 -131.67537 33993 ft 471 kts 327°
2026-04-26 19:54 55.21141 -131.73343 33995 ft 470 kts 327°
2026-04-26 19:54 55.26713 -131.79108 33989 ft 470 kts 326°
2026-04-26 19:55 55.32338 -131.84947 33993 ft 469 kts 327°
2026-04-26 19:55 55.37905 -131.90747 33988 ft 468 kts 327°
2026-04-26 19:56 55.43478 -131.96565 33995 ft 467 kts 327°
2026-04-26 19:56 55.49052 -132.02409 33990 ft 466 kts 327°
2026-04-26 19:57 55.54578 -132.08228 33988 ft 465 kts 327°
2026-04-26 19:57 55.60119 -132.14081 33981 ft 465 kts 327°
2026-04-26 19:58 55.65607 -132.20000 33907 ft 464 kts 325°
2026-04-26 19:58 55.68315 -132.23044 33767 ft 463 kts 325°
2026-04-26 19:58 55.70994 -132.26056 33630 ft 463 kts 326°
2026-04-26 19:59 55.73733 -132.29140 33481 ft 462 kts 326°
2026-04-26 19:59 55.76403 -132.32150 33339 ft 461 kts 326°
2026-04-26 19:59 55.79096 -132.35191 33196 ft 460 kts 326°
2026-04-26 19:59 55.81806 -132.38258 33044 ft 458 kts 326°
2026-04-26 20:00 55.84449 -132.41252 32904 ft 457 kts 325°
2026-04-26 20:00 55.87123 -132.44286 32761 ft 457 kts 326°
2026-04-26 20:00 55.89812 -132.47343 32618 ft 459 kts 326°
2026-04-26 20:00 55.92508 -132.50413 32475 ft 462 kts 326°
2026-04-26 20:01 55.95219 -132.53507 32327 ft 465 kts 326°
2026-04-26 20:01 55.97929 -132.56602 32181 ft 465 kts 326°
2026-04-26 20:01 56.00606 -132.59663 32039 ft 463 kts 326°
2026-04-26 20:01 56.03304 -132.62755 32000 ft 459 kts 326°
2026-04-26 20:02 56.08654 -132.68901 32007 ft 456 kts 325°
2026-04-26 20:02 56.13103 -132.74040 32049 ft 456 kts 324°
2026-04-26 20:03 56.19296 -132.81268 31998 ft 456 kts 325°
2026-04-26 20:03 56.24580 -132.87378 32012 ft 455 kts 325°
2026-04-26 20:04 56.29888 -132.93543 32015 ft 454 kts 325°
2026-04-26 20:04 56.35159 -132.99687 32020 ft 454 kts 326°
2026-04-26 20:05 56.40443 -133.05873 32018 ft 452 kts 325°
2026-04-26 20:05 56.45687 -133.12033 32013 ft 451 kts 326°
2026-04-26 20:06 56.50903 -133.18184 32021 ft 450 kts 325°
2026-04-26 20:06 56.56095 -133.24327 32027 ft 449 kts 325°
2026-04-26 20:07 56.61297 -133.30504 32025 ft 447 kts 326°
2026-04-26 20:07 56.66475 -133.36671 32014 ft 445 kts 325°
2026-04-26 20:08 56.71607 -133.42806 31998 ft 444 kts 326°
2026-04-26 20:08 56.76760 -133.48985 31977 ft 443 kts 325°
2026-04-26 20:09 56.81835 -133.55095 31990 ft 440 kts 326°
2026-04-26 20:09 56.86922 -133.61238 31909 ft 440 kts 325°
2026-04-26 20:10 56.89494 -133.64352 31726 ft 444 kts 326°
2026-04-26 20:10 56.92049 -133.67452 31479 ft 446 kts 325°
2026-04-26 20:10 56.94640 -133.70598 31159 ft 446 kts 325°
2026-04-26 20:10 56.97205 -133.73718 30810 ft 441 kts 325°
2026-04-26 20:11 56.99734 -133.76800 30468 ft 436 kts 325°
2026-04-26 20:11 57.02227 -133.79843 30122 ft 433 kts 325°
2026-04-26 20:11 57.04728 -133.82901 29801 ft 430 kts 325°
2026-04-26 20:12 57.09662 -133.88950 29149 ft 428 kts 325°
2026-04-26 20:12 57.12113 -133.91960 28825 ft 429 kts 324°
2026-04-26 20:12 57.14579 -133.94995 28454 ft 427 kts 325°
2026-04-26 20:12 57.17026 -133.98010 28081 ft 415 kts 325°
2026-04-26 20:13 57.19382 -134.00919 27672 ft 414 kts 325°
2026-04-26 20:13 57.21771 -134.03873 27280 ft 414 kts 324°
2026-04-26 20:13 57.24150 -134.06819 26889 ft 413 kts 324°
2026-04-26 20:13 57.26532 -134.09773 26468 ft 412 kts 324°
2026-04-26 20:14 57.28898 -134.12714 26008 ft 412 kts 324°
2026-04-26 20:14 57.31258 -134.15649 25575 ft 411 kts 324°
2026-04-26 20:14 57.33614 -134.18587 25116 ft 411 kts 324°
2026-04-26 20:14 57.35995 -134.21559 24659 ft 410 kts 324°
2026-04-26 20:15 57.38332 -134.24481 24214 ft 408 kts 324°
2026-04-26 20:15 57.40696 -134.27440 23768 ft 406 kts 323°
2026-04-26 20:15 57.42996 -134.30325 23331 ft 405 kts 324°
2026-04-26 20:15 57.45349 -134.33283 22874 ft 413 kts 323°
2026-04-26 20:16 57.47756 -134.36314 22429 ft 425 kts 323°
2026-04-26 20:16 57.50205 -134.39404 21935 ft 433 kts 324°
2026-04-26 20:16 57.52691 -134.42543 21469 ft 433 kts 324°
2026-04-26 20:16 57.55175 -134.45683 20994 ft 434 kts 324°
2026-04-26 20:17 57.57673 -134.48846 20527 ft 435 kts 324°
2026-04-26 20:17 57.60169 -134.52014 20028 ft 435 kts 323°
2026-04-26 20:17 57.62650 -134.55167 19552 ft 436 kts 323°
2026-04-26 20:17 57.65151 -134.58350 19090 ft 434 kts 323°
2026-04-26 20:18 57.67619 -134.61494 18609 ft 434 kts 323°
2026-04-26 20:18 57.70104 -134.64670 18113 ft 432 kts 324°
2026-04-26 20:18 57.72568 -134.67822 17593 ft 430 kts 323°
2026-04-26 20:18 57.75028 -134.70973 17075 ft 427 kts 323°
2026-04-26 20:19 57.77456 -134.74089 16551 ft 424 kts 323°
2026-04-26 20:19 57.79853 -134.77170 16102 ft 420 kts 323°
2026-04-26 20:19 57.82272 -134.80286 15961 ft 419 kts 323°
2026-04-26 20:19 57.84671 -134.83380 15755 ft 417 kts 323°
2026-04-26 20:20 57.87016 -134.86408 15404 ft 404 kts 323°
2026-04-26 20:20 57.89282 -134.89336 14894 ft 393 kts 323°
2026-04-26 20:20 57.91494 -134.92201 14279 ft 383 kts 323°
2026-04-26 20:20 57.93647 -134.94995 13651 ft 374 kts 323°
2026-04-26 20:21 57.95740 -134.97714 13045 ft 365 kts 323°
2026-04-26 20:21 57.97799 -135.00394 12431 ft 357 kts 323°
2026-04-26 20:21 57.99807 -135.03011 12097 ft 341 kts 323°
2026-04-26 20:21 58.01699 -135.05476 11909 ft 328 kts 323°
2026-04-26 20:22 58.03554 -135.07901 11541 ft 322 kts 323°
2026-04-26 20:22 58.05377 -135.10286 11199 ft 316 kts 323°
2026-04-26 20:22 58.07153 -135.12613 10864 ft 314 kts 323°
2026-04-26 20:22 58.08939 -135.14957 10514 ft 307 kts 323°
2026-04-26 20:23 58.10651 -135.17206 10190 ft 298 kts 323°
2026-04-26 20:23 58.12317 -135.19394 9871 ft 290 kts 323°
2026-04-26 20:23 58.13950 -135.21544 9552 ft 283 kts 322°
2026-04-26 20:23 58.15626 -135.23393 9233 ft 279 kts 336°
2026-04-26 20:24 58.17508 -135.24116 8887 ft 279 kts 356°
2026-04-26 20:24 58.19411 -135.23555 8548 ft 279 kts 17°
2026-04-26 20:24 58.21186 -135.22032 8191 ft 277 kts 24°
2026-04-26 20:24 58.22879 -135.20439 7921 ft 270 kts 23°
2026-04-26 20:25 58.24544 -135.18884 7651 ft 264 kts 23°
2026-04-26 20:25 58.25628 -135.17870 7562 ft 256 kts 24°
2026-04-26 20:25 58.27680 -135.15948 7401 ft 242 kts 24°
2026-04-26 20:25 58.29161 -135.14561 7173 ft 237 kts 24°
2026-04-26 20:26 58.30633 -135.13184 6873 ft 235 kts 24°
2026-04-26 20:26 58.32096 -135.11813 6568 ft 234 kts 24°
2026-04-26 20:26 58.33537 -135.10466 6433 ft 224 kts 24°
2026-04-26 20:26 58.34849 -135.09068 6296 ft 218 kts 37°
2026-04-26 20:27 58.35795 -135.06865 5939 ft 217 kts 63°
2026-04-26 20:27 58.36123 -135.04095 5528 ft 214 kts 88°
2026-04-26 20:27 58.36114 -135.01303 5172 ft 209 kts 91°
2026-04-26 20:27 58.36096 -134.98602 4832 ft 204 kts 91°
2026-04-26 20:28 58.36087 -134.95926 4498 ft 199 kts 91°
2026-04-26 20:28 58.36077 -134.93349 4177 ft 194 kts 91°
2026-04-26 20:28 58.36068 -134.90811 3862 ft 190 kts 91°
2026-04-26 20:28 58.36058 -134.88322 3550 ft 185 kts 91°
2026-04-26 20:29 58.36024 -134.85934 3340 ft 173 kts 92°
2026-04-26 20:29 58.35998 -134.83731 3351 ft 168 kts 92°
2026-04-26 20:29 58.35984 -134.81496 3329 ft 169 kts 91°
2026-04-26 20:29 58.35976 -134.79262 3335 ft 170 kts 91°
2026-04-26 20:30 58.35964 -134.76994 3193 ft 173 kts 92°
2026-04-26 20:30 58.35794 -134.74742 2943 ft 170 kts 101°
2026-04-26 20:30 58.35535 -134.72557 2693 ft 168 kts 103°
2026-04-26 20:30 58.35269 -134.70428 2447 ft 167 kts 103°
2026-04-26 20:31 58.34999 -134.68303 2191 ft 165 kts 102°
2026-04-26 20:31 58.34756 -134.66185 1939 ft 163 kts 101°
2026-04-26 20:31 58.34521 -134.64094 1670 ft 159 kts 101°
2026-04-26 20:31 58.34294 -134.62077 1419 ft 155 kts 102°
2026-04-26 20:32 58.34023 -134.60130 1228 ft 147 kts 108°
2026-04-26 20:32 58.33696 -134.58302 1080 ft 147 kts 110°
2026-04-26 20:32 58.33370 -134.56477 918 ft 146 kts 106°
2026-04-26 20:32 58.33411 -134.54575 675 ft 147 kts 68°
2026-04-26 20:33 58.34146 -134.53429 468 ft 142 kts
2026-04-26 20:33 58.34935 -134.54300 238 ft 134 kts 299°
2026-04-26 20:33 58.35254 -134.55885 -12 ft 124 kts 283°
2026-04-26 20:33 58.35446 -134.57272 -11 ft 89 kts 284°
2026-04-26 20:34 58.35543 -134.57964 -10 ft 16 kts 284°
2026-04-26 20:34 58.35596 -134.58043 -10 ft 10 kts 13°
2026-04-26 20:34 58.35645 -134.58019 -9 ft 1 kts 15°
2026-04-26 20:34 58.35646 -134.58019 -9 ft 0 kts 15°
2026-04-26 20:35 58.35652 -134.58014 -9 ft 4 kts 14°
2026-04-26 20:35 58.35671 -134.58079 -9 ft 9 kts 284°
2026-04-26 20:35 58.35692 -134.58231 -10 ft 12 kts 284°
2026-04-26 20:36 58.35751 -134.58301 -10 ft 8 kts 360°
2026-04-26 20:36 58.35774 -134.58256 -10 ft 7 kts 100°
2026-04-26 20:36 58.35799 -134.58182 -9 ft 3 kts 89°
2026-04-26 20:36 58.35789 -134.58171 -10 ft 0 kts 203°